TIME,DELAY(SENSOR),PRES,OXYGEN,RAWTEMP,T(OPTODE),TCPHASE,FLUOR,BETA(BETA700),BETA(BETA412),BETA(BETA440),CDOM,C(CSC),ED(ED412.20),ED(ED444.00),ED(ED489.60),ED(ED554.30),LU(LU412.10),LU(LU443.90),LU(LU489.70),LU(LU554.70),COMP,TILTX,TILTY,CHECK
1366864330,5812,859.4799804687500000,32.3938102722168000,559.9357299804688000,4.4878878593444820,56.6986198425293000,54,99,99,77,81,15514,0,0,0,0,2147121380,2147772123,2147573238,2147571355,1456,2,13,3109
1366867926,5809,913.5000000000000000,36.0129699707031250,565.6372070312500000,4.3110561370849610,56.1777992248535160,55,101,101,78,83,15513,0,0,0,0,2147122038,2147771840,2147572114,2147568667,243,2,13,22316
1366871526,5810,922.3300170898438000,37.7578010559082000,566.6633911132812000,4.2792019844055180,55.9213294982910160,55,98,99,77,81,15514,0,0,0,0,2147120694,2147773869,2147570011,2147568859,3492,2,13,40207
1366875126,5807,950.3400268554688000,37.8851585388183600,570.5485229492188000,4.1585140228271480,55.9380683898925800,55,97,99,78,82,15511,0,0,0,0,2147122212,2147768685,2147566592,2147566363,3553,2,13,46726
1366878726,5810,954.6500244140625000,37.6068000793457000,570.5405883789062000,4.1587581634521480,55.9808082580566400,55,96,99,78,82,15508,0,0,0,0,2147120704,2147770102,2147570532,2147566272,3531,2,13,59125
1366882326,5811,952.0599975585938000,37.6183700561523440,571.8389282226562000,4.1184010505676270,55.9924011230468750,55,97,100,76,82,15512,0,0,0,0,2147119835,2147768365,2147570011,2147566564,50,2,13,1209
1366885926,5811,988.7700195312500000,40.3121185302734400,573.6909790039062000,4.0608019828796390,55.6113204956054700,56,100,100,79,82,15512,0,0,0,0,2147122962,2147770861,2147570020,2147565120,3284,2,13,36407
1366889526,5811,985.1500244140625000,39.9549903869628900,573.7507934570312000,4.0589427947998050,55.6601905822753900,56,98,99,78,82,15513,0,0,0,0,2147123812,2147774381,2147572150,2147569435,3195,2,13,4673
1366893126,5811,986.7700195312500000,39.7257690429687500,573.6903076171875000,4.0608248710632320,55.6976013183593750,53,98,100,77,81,15508,0,0,0,0,2147121792,2147774061,2147573010,2147568685,3163,2,13,61072
1366896726,5812,995.4000244140625000,38.3829383850097660,572.8494262695312000,4.0869808197021480,55.8876914978027340,56,100,101,78,81,15507,0,0,0,0,2147122203,2147778002,2147573732,2147568667,229,2,13,43183
1366900326,5811,995.4600219726562000,36.2222290039062500,573.0592041015625000,4.0804538726806640,56.2188491821289060,54,100,99,78,81,15509,0,0,0,0,2147121627,2147772333,2147573476,2147570157,209,2,13,21297
1366903926,5812,997.9000244140625000,39.4873313903808600,573.1663208007812000,4.0771260261535645,55.7271118164062500,55,98,101,77,82,15506,0,0,0,0,2147120886,2147769901,2147572205,2147568301,3498,2,13,19930
1366907526,5809,995.0499877929688000,38.2722015380859400,572.8599853515625000,4.0866508483886720,55.9063606262207000,54,99,100,77,81,15506,0,0,0,0,2147120054,2147770130,2147570669,2147568155,3504,2,13,57770
1366911126,5809,993.1099853515625000,38.1828384399414060,573.2534790039062000,4.0744109153747560,55.9240608215332000,55,98,99,78,81,15507,0,0,0,0,2147124416,2147775588,2147576082,2147569554,666,2,13,21434
1366914726,5809,997.6699829101562000,39.5579490661621100,573.9301147460938000,4.0533661842346190,55.7272491455078100,55,97,99,78,81,15506,0,0,0,0,2147124041,2147769645,2147570843,2147568685,89,3,13,32519
1366918326,5809,996.8499755859375000,39.6494483947753900,573.9243164062500000,4.0535449981689450,55.7058181762695300,54,99,100,78,81,15503,0,0,0,0,2147123821,2147770368,2147573284,2147565449,394,2,13,7009
1366921926,5810,992.7000122070312000,39.3978004455566400,573.8355712890625000,4.0563049316406250,55.7442207336425800,54,98,100,77,82,15505,0,0,0,0,2147120146,2147767561,2147567853,2147566921,232,2,13,44733
1366925526,5810,992.4299926757812000,37.6211395263671900,574.3842773437500000,4.0392341613769530,56.0189895629882800,54,97,100,77,81,15506,0,0,0,0,2147121078,2147776228,2147575616,2147567954,3278,3,13,23791
1366929126,5806,991.3900146484375000,40.8784599304199200,575.3013916015625000,4.0106978416442870,55.5397109985351560,54,98,100,78,82,15502,0,0,0,0,2147122148,2147770889,2147569261,2147567113,535,2,13,8332
1366932726,5811,992.7800292968750000,39.9704704284668000,575.0023803710938000,4.0200018882751465,55.6745414733886700,55,97,100,78,82,15507,0,0,0,0,2147116635,2147773074,2147570944,2147565293,137,3,13,44441
1366936326,5808,998.5499877929688000,39.8772697448730500,574.7698974609375000,4.0272369384765625,55.6822700500488300,55,98,100,78,81,15502,0,0,0,0,2147122861,2147773732,2147571547,2147568786,282,2,13,32158
1366939926,5811,998.8200073242188000,39.9914283752441400,574.1511230468750000,4.0464920997619630,55.6621894836425800,55,97,99,78,82,15505,0,0,0,0,2147122934,2147773165,2147572982,2147568128,86,3,13,60182
1366943526,5810,995.7299804687500000,39.4380302429199200,574.6541137695312000,4.0308399200439450,55.7512702941894500,55,96,100,77,81,15503,0,0,0,0,2147120722,2147772205,2147574747,2147569792,3539,2,13,46136
1366947126,5809,999.1500244140625000,39.6990890502929700,574.2152099609375000,4.0444970130920410,55.7066116333007800,54,98,100,79,81,15502,0,0,0,0,2147122596,2147770569,2147577737,2147569810,3227,2,13,21118
1366950726,5810,997.7000122070312000,38.9370803833007800,574.1206054687500000,4.0474400520324710,55.8163490295410160,55,97,99,77,81,15499,0,0,0,0,2147120173,2147771611,2147576603,2147569645,95,3,13,44295
1366954326,5808,1000.5499877929688000,38.7989616394043000,574.0985717773438000,4.0481238365173340,55.8418807983398440,55,97,99,78,81,15501,0,0,0,0,2147120640,2147772516,2147573092,2147568621,234,2,13,47585
1366957926,5808,999.7100219726562000,39.8984794616699200,573.9083862304688000,4.0540409088134770,55.6724815368652340,53,99,100,78,82,15502,0,0,0,0,2147122907,2147772123,2147566811,2147566838,663,2,13,23460
1366961526,5811,1001.2100219726562000,37.8465881347656250,573.9945068359375000,4.0513610839843750,55.9830207824707000,56,96,100,77,82,15498,0,0,0,0,2147123977,2147773723,2147571136,2147569188,34,3,13,21424
1366965126,5811,999.5000000000000000,39.4545593261718750,574.0225830078125000,4.0504860877990720,55.7413902282714840,55,97,101,79,81,15498,0,0,0,0,2147122733,2147775049,2147567579,2147565165,3187,2,13,15234
1366968726,5808,1000.9000244140625000,40.0179786682128900,573.9547729492188000,4.0525989532470700,55.6524810791015600,56,97,100,77,81,15489,0,0,0,0,2147121499,2147768192,2147571739,2147567104,444,3,13,23043
1366972326,5811,996.5900268554688000,40.8715095520019500,574.9741821289062000,4.0208802223205570,55.5415687561035160,55,98,100,77,82,15493,0,0,0,0,2147120292,2147777307,2147567378,2147566838,3426,2,13,13107
1366975926,5810,992.8699951171875000,40.7408981323242200,575.7415771484375000,3.9969980716705322,55.5716590881347660,55,96,100,78,82,15494,0,0,0,0,2147120374,2147774537,2147572598,2147564178,3556,2,13,20480
1366979526,5811,999.2700195312500000,40.6061210632324200,575.1105957031250000,4.0166358947753910,55.5814285278320300,54,98,100,77,80,15494,0,0,0,0,2147123776,2147771510,2147571035,2147565229,3461,2,13,24742
1366983126,5807,1002.1400146484375000,40.0024604797363300,574.1857910156250000,4.0454101562500000,55.6609992980957000,54,97,100,77,81,15492,0,0,0,0,2147122121,2147766345,2147576448,2147566518,3578,2,13,48456
1366986726,5811,1004.5599975585938000,40.3712387084960940,574.6784057617188000,4.0300850868225100,55.6077995300293000,56,100,99,78,82,15492,0,0,0,0,2147120612,2147777590,2147574354,2147565056,66,3,13,27362
1366990326,5809,999.1300048828125000,40.5955200195312500,574.8248291015625000,4.0255298614501950,55.5788497924804700,55,96,100,77,82,15490,0,0,0,0,2147120960,2147776914,2147577956,2147567680,3591,2,13,39454
1366993926,5810,999.7700195312500000,40.7596702575683600,574.5399780273438000,4.0343890190124510,55.5522193908691400,54,97,99,78,81,15492,0,0,0,0,2147123922,2147774354,2147575981,2147569517,9,2,13,11431
1366997526,5809,1001.7100219726562000,39.7642402648925800,574.2188720703125000,4.0443801879882810,55.6987915039062500,54,97,99,77,81,15491,0,0,0,0,2147124672,2147774601,2147571309,2147565622,126,3,13,47415
1367001126,5810,1007.1799926757812000,39.9483909606933600,573.2484741210938000,4.0745677947998050,55.6545104980468750,55,101,98,78,82,15490,0,0,0,0,2147123209,2147771913,2147575360,2147567597,460,2,13,59609
1367004726,5807,1001.2100219726562000,39.6286392211914060,573.6627807617188000,4.0616822242736820,55.7125587463378900,55,97,100,78,81,15483,0,0,0,0,2147118921,2147768612,2147574893,2147565558,246,2,13,2280
1367007956,5810,1003.4600219726562000,39.8932304382324200,574.1953735351562000,4.0451111793518070,55.6782112121582000,55,98,100,79,80,15484,0,0,0,0,2147121984,2147771154,2147576201,2147565915,177,2,13,6354
